Weather History for Biloxi, MS

Change the Weather History Date:

Tuesday, September 16, 2014

  Actual Average Record
Temperature  
Mean Temperature 81 °F -  
Max Temperature 89 °F 86 °F 94 °F (1982)
Min Temperature 73 °F 70 °F 55 °F (2004)
Cooling Degree Days 16    
Growing Degree Days 31 (Base 50)    
Moisture  
Dew Point 74 °F    
Average Humidity 84    
Maximum Humidity 96    
Minimum Humidity 59    
Precipitation  
Precipitation 0.08 in - - ()
Sea Level Pressure  
Sea Level Pressure 30.02 in    
Wind  
Wind Speed 4 mph (WSW)    
Max Wind Speed 15 mph    
Max Gust Speed 21 mph    
Visibility 10 miles    
Events Rain , Thunderstorm    
Averages and records for this station are not official NWS values.
T = Trace of Precipitation, MM = Missing Value Source: NWS Daily Summary

Daily Weather History Graph

Daily Weather History Graph

Search for Another Location

Airport:

Trip Planner

Search our weather history database for the weather conditions in past years. The results will help you decide how hot, cold, wet, or windy it might be!

Date:

Astronomy

Sep. 16, 2014 Rise Set
Actual Time 6:40 AM CDT 6:59 PM CDT
Civil Twilight 6:16 AM CDT 7:23 PM CDT
Nautical Twilight 5:48 AM CDT 7:51 PM CDT
Astronomical Twilight 5:19 AM CDT 8:20 PM CDT
Moon 12:08 AM CDT (9/16) 2:05 PM CDT (9/16)
Length of Visible Light 13h 07m
Length of Day
12h 19m
Last Quarter, 44% of the Moon is Illuminated
Sep 16
Last Quarter
Sep 24
New
Oct 1
First Quarter
Oct 8
Full
Oct 15
Last Quarter

Hourly Weather History & Observations

Time (CDT) Temp. Heat Index Dew Point Humidity Pressure Visibility Wind Dir Wind Speed Gust Speed Precip Events Conditions
12:58 AM 78.6 °F - 75.6 °F 90% 30.08 in 10.0 mi Calm Calm - N/A   Clear
1:58 AM 77.7 °F - 75.6 °F 93% 30.07 in 10.0 mi WNW 1.2 mph - N/A   Partly Cloudy
2:58 AM 77.7 °F - 76.1 °F 95% 30.07 in 10.0 mi NW 5.8 mph - N/A   Partly Cloudy
3:58 AM 76.3 °F - 75.0 °F 96% 30.05 in 10.0 mi NNW 3.5 mph - N/A   Partly Cloudy
4:58 AM 76.1 °F - 74.1 °F 94% 30.05 in 10.0 mi NNW 4.6 mph - N/A   Scattered Clouds
5:58 AM 75.4 °F - 72.5 °F 91% 30.06 in 10.0 mi NE 3.5 mph - N/A   Clear
6:58 AM 75.2 °F - 72.5 °F 91% 30.06 in 10.0 mi North 5.8 mph - N/A   Clear
7:58 AM 77.4 °F - 72.7 °F 85% 30.08 in 10.0 mi NE 3.5 mph - N/A   Clear
8:58 AM 81.1 °F 86.0 °F 72.9 °F 76% 30.08 in 10.0 mi NNE 4.6 mph - N/A   Clear
9:58 AM 84.9 °F 91.8 °F 73.2 °F 68% 30.07 in 10.0 mi NNE 5.8 mph - N/A   Clear
10:58 AM 86.5 °F 93.8 °F 73.2 °F 64% 30.08 in 10.0 mi Variable 2.3 mph - N/A   Clear
11:58 AM 87.3 °F 95.3 °F 73.6 °F 64% 30.06 in 10.0 mi SSW 5.8 mph - N/A   Scattered Clouds
12:23 PM 87.8 °F 97.6 °F 75.2 °F 66% 30.04 in 10.0 mi SSW 5.8 mph - N/A   Mostly Cloudy
12:28 PM 89.6 °F 98.2 °F 73.4 °F 59% 30.04 in 10.0 mi SW 4.6 mph - N/A   Scattered Clouds
12:38 PM 89.6 °F 99.8 °F 75.2 °F 62% 30.03 in 10.0 mi Variable 4.6 mph - N/A   Mostly Cloudy
12:53 PM 89.6 °F 99.8 °F 75.2 °F 62% 30.03 in 10.0 mi SSW 8.1 mph - N/A   Mostly Cloudy
12:58 PM 88.7 °F 98.7 °F 75.0 °F 64% 30.04 in 10.0 mi SSW 9.2 mph - N/A Thunderstorm Mostly Cloudy
1:35 PM 86.0 °F 95.1 °F 75.2 °F 70% 30.01 in 10.0 mi South 10.4 mph - N/A Thunderstorm Thunderstorm
1:58 PM 84.0 °F 92.9 °F 76.3 °F 77% 30.02 in 10.0 mi SW 4.6 mph - N/A Rain , Thunderstorm Light Thunderstorms and Rain
2:31 PM 80.6 °F 87.1 °F 77.0 °F 89% 29.99 in 9.0 mi WSW 4.6 mph - N/A Rain , Thunderstorm Light Rain
2:48 PM 80.6 °F 87.1 °F 77.0 °F 89% 29.98 in 10.0 mi WSW 3.5 mph - N/A   Clear
2:58 PM 80.8 °F 88.0 °F 77.9 °F 91% 29.98 in 10.0 mi SW 6.9 mph - 0.03 in   Clear
3:01 PM 80.6 °F 87.1 °F 77.0 °F 89% 29.97 in 10.0 mi SW 6.9 mph - N/A Rain Light Rain
3:03 PM 80.6 °F 87.1 °F 77.0 °F 89% 29.97 in 10.0 mi SW 5.8 mph - N/A   Partly Cloudy
3:58 PM 81.0 °F 87.9 °F 77.0 °F 88% 29.97 in 10.0 mi SW 5.8 mph - 0.00 in   Partly Cloudy
4:10 PM 80.6 °F 87.1 °F 77.0 °F 89% 29.97 in 10.0 mi WSW 4.6 mph - N/A Thunderstorm Thunderstorm
4:34 PM 80.6 °F 87.1 °F 77.0 °F 89% 29.98 in 10.0 mi WNW 2.3 mph - N/A   Partly Cloudy
4:58 PM 78.8 °F - 74.5 °F 87% 30.00 in 10.0 mi Variable 3.5 mph - N/A   Mostly Cloudy
5:21 PM 78.8 °F - 73.4 °F 83% 29.98 in 10.0 mi Variable 4.6 mph - N/A Rain Light Rain
5:46 PM 75.2 °F - 71.6 °F 89% 29.98 in 10.0 mi Variable 2.3 mph - N/A   Partly Cloudy
5:58 PM 75.9 °F - 72.7 °F 90% 30.00 in 10.0 mi Variable 1.2 mph - 0.00 in   Partly Cloudy
6:37 PM 77.0 °F - 73.4 °F 89% 29.99 in 10.0 mi Variable 2.3 mph - N/A Rain Light Rain
6:58 PM 76.1 °F - 72.5 °F 89% 30.02 in 8.0 mi Variable 3.5 mph - 0.01 in Rain Light Rain
7:13 PM 77.0 °F - 71.6 °F 83% 30.01 in 10.0 mi Variable 5.8 mph - N/A Rain Light Rain
7:18 PM 77.0 °F - 73.4 °F 89% 30.01 in 10.0 mi SSE 15.0 mph 20.7 mph N/A Rain Light Rain
7:48 PM 75.2 °F - 71.6 °F 89% 30.02 in 10.0 mi SE 8.1 mph - N/A Rain Light Rain
7:58 PM 75.7 °F - 72.7 °F 90% 30.03 in 10.0 mi SSE 6.9 mph - 0.04 in Rain Light Rain
8:12 PM 75.2 °F - 73.4 °F 94% 30.01 in 10.0 mi South 4.6 mph - N/A   Overcast
8:58 PM 76.1 °F - 73.6 °F 92% 30.00 in 10.0 mi WSW 3.5 mph - 0.00 in   Mostly Cloudy
9:58 PM 75.0 °F - 73.4 °F 95% 30.04 in 10.0 mi NNE 5.8 mph - N/A   Mostly Cloudy
10:18 PM 75.2 °F - 73.4 °F 94% 30.03 in 10.0 mi NE 6.9 mph - N/A   Overcast
10:48 PM 73.4 °F - 71.6 °F 94% 30.02 in 10.0 mi Variable 1.2 mph - N/A   Mostly Cloudy
10:58 PM 74.1 °F - 72.3 °F 94% 30.02 in 10.0 mi North 2.3 mph - N/A   Mostly Cloudy
11:58 PM 74.8 °F - 70.9 °F 87% 29.99 in 10.0 mi Calm Calm - N/A   Overcast